Meteo orario Alkino-2

Oggi, 25 Ottobre, Domenica

Tempo Temperatura Precipitazioni Vento Pressione Umidità
00:00 +6°C° 0.1 mm 4 m/s 740 mm Hg 90%
01:00 +7°C° 0.1 mm 4 m/s 741 mm Hg 89%
02:00 +6°C° 0 mm 4 m/s 741 mm Hg 90%
03:00 +6°C° 0 mm 4 m/s 741 mm Hg 90%
04:00 +7°C° 0 mm 3 m/s 741 mm Hg 91%
05:00 +7°C° 0 mm 3 m/s 741 mm Hg 91%
06:00 +7°C° 0 mm 3 m/s 742 mm Hg 90%
07:00 +5°C° 0 mm 3 m/s 742 mm Hg 90%
08:00 +7°C° 0 mm 2 m/s 742 mm Hg 89%
09:00 +7°C° 0 mm 2 m/s 742 mm Hg 87%
10:00 +7°C° 0 mm 2 m/s 742 mm Hg 86%
11:00 +8°C° 0 mm 2 m/s 742 mm Hg 85%
12:00 +9°C° 0 mm 1 m/s 741 mm Hg 83%
13:00 +9°C° 0 mm 1 m/s 741 mm Hg 82%
14:00 +9°C° 0 mm 1 m/s 741 mm Hg 83%
15:00 +9°C° 0 mm 1 m/s 741 mm Hg 84%
16:00 +9°C° 0 mm 1 m/s 740 mm Hg 85%
17:00 +8°C° 0.2 mm 1 m/s 740 mm Hg 87%
18:00 +8°C° 0.2 mm 1 m/s 739 mm Hg 88%
19:00 +8°C° 0.2 mm 1 m/s 739 mm Hg 90%
20:00 +8°C° 0.9 mm 1 m/s 738 mm Hg 92%
21:00 +6°C° 0.9 mm 2 m/s 738 mm Hg 94%
22:00 +6°C° 0.9 mm 2 m/s 738 mm Hg 96%
23:00 +5°C° 1.1 mm 3 m/s 738 mm Hg 95%

Domani, 26 Ottobre, Lunedi

Tempo Temperatura Precipitazioni Vento Pressione Umidità
00:00 +4°C° 1.1 mm 4 m/s 738 mm Hg 93%
01:00 +3°C° 1.1 mm 5 m/s 738 mm Hg 92%
02:00 +2°C° 0.2 mm 6 m/s 738 mm Hg 92%
03:00 +2°C° 0.2 mm 6 m/s 738 mm Hg 91%
04:00 0°C° 0.2 mm 7 m/s 739 mm Hg 90%
05:00 0°C° 0 mm 7 m/s 739 mm Hg 86%
06:00 0°C° 0 mm 7 m/s 740 mm Hg 82%
07:00 -1°C° 0 mm 7 m/s 740 mm Hg 78%
08:00 -1°C° 0 mm 7 m/s 741 mm Hg 77%
09:00 -1°C° 0 mm 7 m/s 741 mm Hg 76%
10:00 -2°C° 0 mm 8 m/s 742 mm Hg 75%
11:00 -1°C° 0 mm 7 m/s 742 mm Hg 74%
12:00 -1°C° 0 mm 7 m/s 742 mm Hg 73%
13:00 -1°C° 0 mm 7 m/s 743 mm Hg 71%
14:00 -2°C° 0.1 mm 7 m/s 743 mm Hg 73%
15:00 -2°C° 0.1 mm 7 m/s 743 mm Hg 75%
16:00 -2°C° 0.1 mm 7 m/s 744 mm Hg 77%
17:00 -2°C° 0.1 mm 7 m/s 744 mm Hg 81%
18:00 -3°C° 0.1 mm 7 m/s 744 mm Hg 84%
19:00 -4°C° 0.1 mm 7 m/s 744 mm Hg 87%
20:00 -5°C° 0 mm 8 m/s 745 mm Hg 84%
21:00 -4°C° 0 mm 8 m/s 745 mm Hg 80%
22:00 -4°C° 0 mm 9 m/s 746 mm Hg 77%
23:00 -4°C° 0 mm 9 m/s 746 mm Hg 77%

Dopodomani, 27 Ottobre, Martedi

Tempo Temperatura Precipitazioni Vento Pressione Umidità
00:00 -5°C° 0 mm 8 m/s 746 mm Hg 77%
01:00 -5°C° 0 mm 8 m/s 747 mm Hg 78%
02:00 -5°C° 0 mm 8 m/s 747 mm Hg 78%
03:00 -5°C° 0 mm 8 m/s 748 mm Hg 78%
04:00 -5°C° 0 mm 8 m/s 748 mm Hg 78%
05:00 -5°C° 0 mm 8 m/s 749 mm Hg 79%
06:00 -5°C° 0 mm 8 m/s 749 mm Hg 79%
07:00 -5°C° 0 mm 8 m/s 750 mm Hg 80%
08:00 -5°C° 0 mm 8 m/s 750 mm Hg 78%
09:00 -5°C° 0 mm 8 m/s 751 mm Hg 76%
10:00 -3°C° 0 mm 7 m/s 751 mm Hg 74%
11:00 -3°C° 0 mm 7 m/s 752 mm Hg 73%
12:00 -3°C° 0 mm 7 m/s 752 mm Hg 73%
13:00 -3°C° 0 mm 7 m/s 753 mm Hg 72%
14:00 -3°C° 0 mm 6 m/s 753 mm Hg 72%
15:00 -3°C° 0 mm 6 m/s 754 mm Hg 72%
16:00 -3°C° 0 mm 6 m/s 754 mm Hg 72%
17:00 -2°C° 0 mm 5 m/s 755 mm Hg 75%
18:00 -4°C° 0 mm 5 m/s 755 mm Hg 77%
19:00 -3°C° 0 mm 4 m/s 756 mm Hg 80%
20:00 -3°C° 0 mm 4 m/s 756 mm Hg 81%
21:00 -3°C° 0 mm 4 m/s 756 mm Hg 82%
22:00 -4°C° 0 mm 4 m/s 756 mm Hg 82%
23:00 -4°C° 0 mm 3 m/s 757 mm Hg 83%

28 Ottobre, Mercoledi

Tempo Temperatura Precipitazioni Vento Pressione Umidità
00:00 -4°C° 0 mm 3 m/s 757 mm Hg 83%
01:00 -4°C° 0 mm 3 m/s 757 mm Hg 83%
02:00 -4°C° 0 mm 3 m/s 758 mm Hg 83%
03:00 -4°C° 0 mm 3 m/s 758 mm Hg 83%
04:00 -4°C° 0 mm 3 m/s 758 mm Hg 83%
05:00 -3°C° 0 mm 2 m/s 759 mm Hg 83%
06:00 -3°C° 0 mm 2 m/s 759 mm Hg 83%
07:00 -3°C° 0 mm 2 m/s 759 mm Hg 83%
08:00 -3°C° 0 mm 2 m/s 760 mm Hg 78%
09:00 -2°C° 0 mm 2 m/s 760 mm Hg 74%
10:00 -1°C° 0 mm 2 m/s 760 mm Hg 70%
11:00 -1°C° 0 mm 2 m/s 760 mm Hg 66%
12:00 +2°C° 0 mm 1 m/s 760 mm Hg 63%
13:00 +2°C° 0 mm 1 m/s 760 mm Hg 60%
14:00 +2°C° 0 mm 1 m/s 760 mm Hg 62%
15:00 +2°C° 0 mm 1 m/s 761 mm Hg 65%
16:00 +1°C° 0 mm 0 m/s 761 mm Hg 67%
17:00 0°C° 0 mm 0 m/s 761 mm Hg 69%
18:00 0°C° 0 mm 0 m/s 761 mm Hg 71%
19:00 0°C° 0 mm 0 m/s 761 mm Hg 72%
20:00 +1°C° 0 mm 1 m/s 761 mm Hg 73%
21:00 0°C° 0 mm 1 m/s 761 mm Hg 74%
22:00 0°C° 0 mm 1 m/s 762 mm Hg 75%
23:00 0°C° 0 mm 1 m/s 762 mm Hg 75%

29 Ottobre, Giovedi

Tempo Temperatura Precipitazioni Vento Pressione Umidità
00:00 0°C° 0 mm 1 m/s 762 mm Hg 76%
01:00 -2°C° 0 mm 2 m/s 762 mm Hg 76%
02:00 -2°C° 0 mm 2 m/s 762 mm Hg 76%
03:00 -2°C° 0 mm 2 m/s 762 mm Hg 76%
04:00 -2°C° 0 mm 2 m/s 762 mm Hg 76%
05:00 -2°C° 0 mm 2 m/s 762 mm Hg 75%
06:00 -2°C° 0 mm 2 m/s 762 mm Hg 75%
07:00 -2°C° 0 mm 2 m/s 762 mm Hg 75%
08:00 -1°C° 0 mm 3 m/s 762 mm Hg 71%
09:00 0°C° 0 mm 3 m/s 762 mm Hg 67%
10:00 0°C° 0 mm 4 m/s 762 mm Hg 63%
11:00 +1°C° 0 mm 4 m/s 762 mm Hg 61%
12:00 +3°C° 0 mm 4 m/s 762 mm Hg 59%
13:00 +3°C° 0 mm 4 m/s 762 mm Hg 56%
14:00 +3°C° 0 mm 3 m/s 762 mm Hg 60%
15:00 +2°C° 0 mm 3 m/s 762 mm Hg 63%
16:00 +2°C° 0 mm 3 m/s 761 mm Hg 67%
17:00 +1°C° 0 mm 3 m/s 762 mm Hg 70%
18:00 0°C° 0 mm 3 m/s 762 mm Hg 73%
19:00 0°C° 0 mm 3 m/s 762 mm Hg 76%
20:00 -1°C° 0 mm 3 m/s 762 mm Hg 77%
21:00 -1°C° 0 mm 3 m/s 762 mm Hg 78%
22:00 -1°C° 0 mm 3 m/s 762 mm Hg 79%
23:00 -1°C° 0 mm 3 m/s 762 mm Hg 79%

30 Ottobre, Venerdi

Tempo Temperatura Precipitazioni Vento Pressione Umidità
00:00 -1°C° 0 mm 2 m/s 762 mm Hg 79%
01:00 -1°C° 0 mm 2 m/s 762 mm Hg 79%
02:00 -1°C° 0 mm 2 m/s 762 mm Hg 78%
03:00 -1°C° 0 mm 3 m/s 762 mm Hg 78%
04:00 -1°C° 0 mm 3 m/s 762 mm Hg 77%
05:00 -1°C° 0 mm 3 m/s 762 mm Hg 77%
06:00 -1°C° 0 mm 3 m/s 762 mm Hg 76%
07:00 -1°C° 0 mm 3 m/s 761 mm Hg 75%
08:00 0°C° 0 mm 3 m/s 761 mm Hg 70%
09:00 +1°C° 0 mm 3 m/s 761 mm Hg 65%
10:00 +1°C° 0 mm 4 m/s 761 mm Hg 60%
11:00 +1°C° 0 mm 4 m/s 761 mm Hg 59%
12:00 +3°C° 0 mm 4 m/s 761 mm Hg 58%
13:00 +4°C° 0 mm 4 m/s 761 mm Hg 57%
14:00 +4°C° 0 mm 4 m/s 760 mm Hg 59%
15:00 +3°C° 0 mm 4 m/s 760 mm Hg 61%
16:00 +3°C° 0 mm 3 m/s 760 mm Hg 63%
17:00 +2°C° 0 mm 3 m/s 760 mm Hg 64%
18:00 +2°C° 0 mm 3 m/s 760 mm Hg 65%
19:00 +1°C° 0 mm 3 m/s 760 mm Hg 67%
20:00 0°C° 0 mm 4 m/s 759 mm Hg 66%
21:00 0°C° 0 mm 4 m/s 759 mm Hg 65%
22:00 -1°C° 0 mm 4 m/s 759 mm Hg 64%
23:00 -1°C° 0 mm 4 m/s 759 mm Hg 62%
Mostrare altro

Abbiamo bisogno del tuo consenso

Meteoprog e i nostri fornitori di servizi possono memorizzare e accedere a dati personali come cookie, identificatori di dispositivi o altre tecnologie simili sul tuo dispositivo e possono elaborare tali dati per personalizzare i contenuti e gli annunci, nonché fornire funzionalità dei social media e analizzarne il traffico.

  • Archiviare e/o accedere alle informazioni sul tuo dispositivo

    Cookie, identificatori di dispositivi o altre informazioni possono essere memorizzati o resi accessibili sul tuo dispositivo per le finalità sopra indicate.

  • Annunci e contenuti personalizzati, misurazione di annunci e contenuti, approfondimenti sul pubblico e sviluppo di prodotti

    Gli annunci e i contenuti possono essere personalizzati in base a un profilo. È possibile aggiungere più dati per personalizzare meglio annunci e contenuti. È possibile misurare il rendimento degli annunci e dei contenuti. È possibile ricavare informazioni sul pubblico che ha visto gli annunci e i contenuti. Tali dati possono essere utilizzati per sviluppare o migliorare l'esperienza, i sistemi e il software dell'utente.

Cliccando su “Accetto”, acconsenti all'uso di cookie, identificatori di dispositivo, web beacon o altre tecnologie simili. Puoi modificare le impostazioni nel browser del tuo dispositivo.

Per determinati scopi, è possibile fare affidamento su interessi legali, piuttosto che sul consenso. Puoi approfondire questo argomento consultando la nostra Informativa sulla privacy e sui cookie.